map of VIE home
VIE - Airport
Location
City:  Wien, Wien (Vienna), Austria
Near (Alt.):Vienna
Name:Vienna International Airport
Old (Alt.):Schwechat
ICAO:LOWW
IATA:VIE

Details
Type:Airport (Flugplatz, Airfield)
Use:Public/Civil, International (customs port of entry)
Latitude:4806'37"N (48.110278)
Longitude:1634'11"E (16.569722)
Datum:WGS 1984
Elevation:600 ft (183 m)
Variation:4.53E (WMM2015v2 magnetic declination)
0.15 annual change
Runways:2
Longest:11811 × 148 ft (3600 × 45 m), paved

Time
Time Zone:UTC+1 (DST+2)
Local Time:

Weather
METAR:LOWW 041350Z 34008KT 9999 FEW030 BKN038 03/M04 Q1030 NOSIG
TAF:LOWW 041415Z 0415/0521 35008KT 9999 FEW030 SCT040 TX03/0415Z TNM04/0506Z
TEMPO 0419/0508 26003KT

Related Locations
Nearby:
Farthest:CHT: 11745 mi / 18902 km
Waitangi [Tuuta], CIT, NZ

Find:

   beyond  
but within

Other Information
Maps:
NOTAMs:
Links:
Sources:

  
  • flag of Austria
  • flag of Wien (Vienna)
  • flag of Wien
  

Sectional Chart

Flight Planning
at skyvector.com

Satellite Image

Google Maps Satellite view

 

Copyright © 2004-2019 Karl L. Swartz. All rights reserved.
The Great Circle Mapper name and logo are trademarks of the Great Circle Mapper.
All other trademarks mentioned herein belong to their respective owners.
Please see credits for attibutions and further copyright information.

  Follow gcmap on Facebook Follow gcmap on Twitter GCmap on LinkedIn

hCard Microformat

Geo Microformat